Home   Weather   Wels   Past weeks

Flag for Austria Past Weather in Wels, Upper Austria, Austria — Yesterday and Last 2 Weeks

Now
80 °F

Scattered clouds.


Feels Like: 81 °F
Forecast: 66 / 79 °F
Wind: 5 mph from Northwest

Location: Linz / Hoersching-Flughafen

Current Time: Jul 22, 2017 at 4:53:52 pm

Latest Report: Jul 22, 2017 at 4:00 pm


Visibility: 28 mi

Pressure: 29.93 "Hg

Humidity: 47%

Dew Point: 58 °F

Location of WelsLocation

Past Weather in Wels — Graph

°F

Wels Temperature Yesterday

Maximum temperature yesterday: 84 °F (at 5:00 pm)
Minimum temperature yesterday: 59 °F (at 5:00 am)
Average temperature yesterday: 70 °F

High & Low Weather Summary for the Past Weeks

 TemperatureHumidityPressure
High90 °F (Jul 19, 5:00 pm)99% (Jul 21, 7:00 am)30.29 "Hg (Jul 21, 7:00 am)
Low51 °F (Jul 16, 5:00 am)25% (Jul 13, 7:00 pm)29.75 "Hg (Jul 10, 7:00 pm)
Average70 °F62%30.00 "Hg
* Reported Jul 7 3:00 pm — Jul 22 3:00 pm, Wels. Weather by CustomWeather, © 2017

Note: Actual official high and low records may vary slightly from our data, if they occured in-between our weather recording intervals... More about our weather records

Advertising

Wels Weather History for the Previous 24 Hours

Scroll right to see more
 ConditionsComfort  
Time TempWeatherWind HumidityBarometerVisibility
3:00 pm
Sat, Jul 22
78 °FPassing clouds.3 mph53%29.94 "Hg22 mi
2:00 pmN/APassing clouds.12 mphN/AN/A19 mi
1:00 pm74 °FOvercast.5 mph62%29.96 "Hg22 mi
12:00 pm74 °FOvercast.6 mph62%29.96 "Hg25 mi
11:00 am74 °FPartly sunny.5 mph61%29.96 "Hg22 mi
10:00 am73 °FScattered clouds.7 mph65%29.95 "Hg25 mi
9:00 am70 °FPassing clouds.5 mph73%29.96 "Hg25 mi
8:00 amN/APassing clouds.13 mphN/AN/A17 mi
7:00 am65 °FScattered clouds.N/A85%29.94 "Hg19 mi
6:00 am64 °FScattered clouds.5 mph85%29.93 "Hg28 mi
5:00 am64 °FMild.7 mph88%29.90 "Hg22 mi
4:00 am64 °FPassing clouds.N/A87%29.86 "Hg22 mi
3:00 am65 °FMild.N/A85%29.86 "Hg22 mi
2:00 am66 °FPassing clouds.N/A81%29.87 "Hg28 mi
1:00 am67 °FPassing clouds.5 mph81%29.86 "Hg31 mi
12:00 am68 °FOvercast.N/A77%29.88 "Hg31 mi
11:00 pm
Fri, Jul 21
69 °FRain showers. Overcast.5 mph75%29.92 "Hg25 mi
10:00 pm78 °FOvercast.7 mph54%29.88 "Hg31 mi
9:00 pm79 °FPassing clouds.5 mph47%29.83 "Hg31 mi
8:00 pm80 °FPartly sunny.N/A43%29.83 "Hg31 mi
7:00 pm82 °FPartly sunny.3 mph39%29.83 "Hg28 mi
6:00 pm83 °FScattered clouds.6 mph34%29.84 "Hg28 mi
5:00 pm84 °FPassing clouds.6 mph36%29.86 "Hg28 mi
4:00 pm83 °FPassing clouds.6 mph34%29.88 "Hg19 mi
Weather by CustomWeather, © 2017

See weather overviewHow to use our weather pages